Time,TemperatureF,DewpointF,PressureIn,WindDirection,WindDirectionDegrees,WindSpeedMPH,WindSpeedGustMPH,Humidity,HourlyPrecipIn,Conditions,Clouds,dailyrainin,SoftwareType,DateUTC
2013-02-23 00:03:00,36.0,32.0,30.01,ENE,73,0.0,2.0,86,0.00,,,0.01,,2013-02-23 05:03:00,
2013-02-23 00:12:00,36.0,32.0,30.01,ENE,73,0.0,2.0,86,0.00,,,0.01,,2013-02-23 05:12:00,
2013-02-23 00:22:00,36.0,32.0,30.02,WNW,285,1.0,4.0,86,0.00,,,0.01,,2013-02-23 05:22:00,
2013-02-23 00:33:00,36.0,32.0,30.01,North,5,1.0,2.0,86,0.00,,,0.01,,2013-02-23 05:33:00,
2013-02-23 00:42:00,36.0,32.0,30.01,North,5,1.0,2.0,86,0.00,,,0.01,,2013-02-23 05:42:00,
2013-02-23 00:52:00,35.0,32.0,30.00,North,5,0.0,1.0,87,0.00,,,0.01,,2013-02-23 05:52:00,
2013-02-23 01:01:00,35.0,32.0,30.00,North,5,0.0,1.0,87,0.00,,,0.01,,2013-02-23 06:01:00,
2013-02-23 01:11:00,35.0,32.0,30.00,North,5,0.0,1.0,87,0.00,,,0.01,,2013-02-23 06:11:00,
2013-02-23 01:22:00,35.0,32.0,29.99,North,5,0.0,2.0,88,0.00,,,0.01,,2013-02-23 06:22:00,
2013-02-23 01:32:00,34.0,31.0,29.99,North,5,0.0,1.0,88,0.00,,,0.01,,2013-02-23 06:32:00,
2013-02-23 01:42:00,34.0,31.0,29.99,North,5,0.0,1.0,88,0.00,,,0.01,,2013-02-23 06:42:00,
2013-02-23 01:52:00,35.0,32.0,29.99,North,5,0.0,0.0,87,0.00,,,0.01,,2013-02-23 06:52:00,
2013-02-23 02:01:00,34.0,31.0,29.99,North,5,1.0,1.0,87,0.00,,,0.01,,2013-02-23 07:01:00,
2013-02-23 02:11:00,34.0,31.0,29.99,North,5,1.0,1.0,87,0.00,,,0.01,,2013-02-23 07:11:00,
2013-02-23 02:21:00,35.0,32.0,29.99,North,5,0.0,2.0,88,0.00,,,0.01,,2013-02-23 07:21:00,
2013-02-23 02:32:00,34.0,31.0,29.98,North,5,0.0,0.0,88,0.00,,,0.01,,2013-02-23 07:32:00,
2013-02-23 02:42:00,34.0,31.0,29.98,North,5,0.0,0.0,88,0.00,,,0.01,,2013-02-23 07:42:00,
2013-02-23 02:52:00,34.0,31.0,29.98,North,5,0.0,0.0,88,0.00,,,0.01,,2013-02-23 07:52:00,
2013-02-23 03:01:00,33.0,30.0,29.97,North,5,0.0,0.0,89,0.00,,,0.01,,2013-02-23 08:01:00,
2013-02-23 03:11:00,33.0,30.0,29.97,North,5,0.0,0.0,89,0.00,,,0.01,,2013-02-23 08:11:00,
2013-02-23 03:21:00,33.0,30.0,29.96,North,5,0.0,1.0,90,0.00,,,0.01,,2013-02-23 08:21:00,
2013-02-23 03:32:00,33.0,30.0,29.95,North,5,0.0,1.0,90,0.00,,,0.01,,2013-02-23 08:32:00,
2013-02-23 03:42:00,33.0,30.0,29.95,North,5,0.0,1.0,90,0.00,,,0.01,,2013-02-23 08:42:00,
2013-02-23 03:53:00,33.0,30.0,29.95,North,5,0.0,1.0,90,0.00,,,0.01,,2013-02-23 08:53:00,
2013-02-23 04:02:00,33.0,30.0,29.95,North,5,0.0,1.0,90,0.00,,,0.01,,2013-02-23 09:02:00,
2013-02-23 08:02:00,33.0,31.0,29.95,North,5,0.0,0.0,92,0.00,,,0.01,,2013-02-23 13:02:00,
2013-02-23 08:12:00,34.0,32.0,29.96,North,5,0.0,0.0,91,0.00,,,0.01,,2013-02-23 13:12:00,
2013-02-23 08:22:00,34.0,32.0,29.96,North,5,0.0,0.0,91,0.00,,,0.01,,2013-02-23 13:22:00,
2013-02-23 08:32:00,35.0,32.0,29.96,North,5,0.0,0.0,90,0.00,,,0.01,,2013-02-23 13:32:00,
2013-02-23 08:42:00,36.0,33.0,29.96,WNW,294,1.0,3.0,89,0.00,,,0.01,,2013-02-23 13:42:00,
2013-02-23 08:52:00,36.0,33.0,29.96,WNW,294,1.0,3.0,89,0.00,,,0.01,,2013-02-23 13:52:00,
2013-02-23 09:02:00,36.0,32.0,29.96,WNW,290,3.0,5.0,86,0.00,,,0.01,,2013-02-23 14:02:00,
2013-02-23 09:11:00,36.0,32.0,29.96,WNW,290,3.0,5.0,86,0.00,,,0.01,,2013-02-23 14:11:00,
2013-02-23 09:21:00,36.0,33.0,29.97,WNW,291,2.0,4.0,87,0.00,,,0.01,,2013-02-23 14:21:00,
2013-02-23 09:32:00,36.0,33.0,29.97,WNW,295,1.0,5.0,87,0.00,,,0.01,,2013-02-23 14:32:00,
2013-02-23 09:42:00,36.0,33.0,29.97,WNW,295,1.0,5.0,87,0.00,,,0.01,,2013-02-23 14:42:00,
2013-02-23 09:52:00,37.0,33.0,29.96,NW,322,2.0,5.0,86,0.00,,,0.01,,2013-02-23 14:52:00,
2013-02-23 10:02:00,37.0,34.0,29.96,NNW,347,0.0,4.0,87,0.00,,,0.01,,2013-02-23 15:02:00,
2013-02-23 10:11:00,37.0,34.0,29.96,NNW,347,0.0,4.0,87,0.00,,,0.01,,2013-02-23 15:11:00,
2013-02-23 10:22:00,37.0,34.0,29.96,NW,315,1.0,4.0,87,0.00,,,0.01,,2013-02-23 15:22:00,
2013-02-23 10:32:00,38.0,34.0,29.96,SW,236,1.0,4.0,86,0.00,,,0.01,,2013-02-23 15:32:00,
2013-02-23 10:42:00,38.0,34.0,29.96,SW,236,1.0,4.0,86,0.00,,,0.01,,2013-02-23 15:42:00,
2013-02-23 10:52:00,38.0,34.0,29.96,WNW,296,1.0,3.0,86,0.00,,,0.01,,2013-02-23 15:52:00,
2013-02-23 11:01:00,39.0,35.0,29.96,NNE,14,0.0,2.0,84,0.00,,,0.01,,2013-02-23 16:01:00,
2013-02-23 11:11:00,39.0,35.0,29.96,NNE,14,0.0,2.0,84,0.00,,,0.01,,2013-02-23 16:11:00,
2013-02-23 11:21:00,39.0,35.0,29.96,NNE,23,0.0,2.0,85,0.00,,,0.01,,2013-02-23 16:21:00,
2013-02-23 11:31:00,39.0,35.0,29.96,ENE,74,0.0,4.0,84,0.00,,,0.01,,2013-02-23 16:31:00,
2013-02-23 11:42:00,39.0,35.0,29.96,ENE,74,0.0,4.0,84,0.00,,,0.01,,2013-02-23 16:42:00,
2013-02-23 11:52:00,39.0,35.0,29.96,WNW,284,0.0,3.0,84,0.00,,,0.01,,2013-02-23 16:52:00,
2013-02-23 12:01:00,40.0,35.0,29.95,North,5,1.0,3.0,83,0.00,,,0.01,,2013-02-23 17:01:00,
2013-02-23 12:11:00,39.0,35.0,29.94,North,5,1.0,2.0,84,0.00,,,0.01,,2013-02-23 17:11:00,
2013-02-23 12:21:00,39.0,35.0,29.94,North,5,1.0,2.0,84,0.00,,,0.01,,2013-02-23 17:21:00,
2013-02-23 12:32:00,40.0,35.0,29.94,North,5,0.0,2.0,82,0.00,,,0.01,,2013-02-23 17:32:00,
2013-02-23 12:42:00,40.0,35.0,29.94,North,5,0.0,2.0,82,0.00,,,0.01,,2013-02-23 17:42:00,
2013-02-23 12:52:00,42.0,37.0,29.93,SE,135,1.0,4.0,81,0.00,,,0.01,,2013-02-23 17:52:00,
2013-02-23 13:02:00,43.0,37.0,29.92,ENE,66,2.0,5.0,80,0.00,,,0.01,,2013-02-23 18:02:00,
2013-02-23 13:12:00,43.0,37.0,29.92,ENE,66,2.0,5.0,80,0.00,,,0.01,,2013-02-23 18:12:00,
2013-02-23 13:22:00,43.0,37.0,29.92,SSE,166,0.0,4.0,78,0.00,,,0.01,,2013-02-23 18:22:00,
2013-02-23 13:32:00,43.0,37.0,29.91,ESE,107,0.0,3.0,79,0.00,,,0.01,,2013-02-23 18:32:00,
2013-02-23 13:42:00,43.0,37.0,29.91,ESE,107,0.0,3.0,79,0.00,,,0.01,,2013-02-23 18:42:00,
2013-02-23 13:52:00,44.0,38.0,29.90,ESE,119,2.0,5.0,78,0.00,,,0.01,,2013-02-23 18:52:00,
2013-02-23 14:01:00,44.0,38.0,29.90,ESE,116,2.0,4.0,78,0.00,,,0.01,,2013-02-23 19:01:00,
2013-02-23 14:11:00,45.0,38.0,29.89,WSW,246,0.0,3.0,75,0.00,,,0.00,,2013-02-23 19:11:00,
2013-02-23 14:21:00,45.0,38.0,29.89,WSW,246,0.0,3.0,75,0.00,,,0.00,,2013-02-23 19:21:00,
2013-02-23 14:32:00,45.0,37.0,29.89,West,261,3.0,7.0,74,0.00,,,0.00,,2013-02-23 19:32:00,
2013-02-23 14:41:00,45.0,37.0,29.89,West,261,3.0,7.0,74,0.00,,,0.00,,2013-02-23 19:41:00,
2013-02-23 14:52:00,45.0,38.0,29.88,West,268,1.0,3.0,76,0.00,,,0.00,,2013-02-23 19:52:00,
2013-02-23 15:01:00,45.0,39.0,29.88,WNW,300,1.0,6.0,78,0.00,,,0.00,,2013-02-23 20:01:00,
2013-02-23 15:11:00,45.0,39.0,29.88,WNW,300,1.0,6.0,78,0.00,,,0.00,,2013-02-23 20:11:00,
2013-02-23 15:21:00,46.0,38.0,29.87,WNW,293,4.0,8.0,74,0.00,,,0.00,,2013-02-23 20:21:00,
2013-02-23 15:32:00,47.0,38.0,29.87,NNW,337,0.0,5.0,72,0.00,,,0.00,,2013-02-23 20:32:00,
2013-02-23 15:42:00,47.0,38.0,29.87,NNW,337,0.0,5.0,72,0.00,,,0.00,,2013-02-23 20:42:00,
2013-02-23 15:53:00,47.0,39.0,29.87,WNW,301,4.0,8.0,73,0.00,,,0.00,,2013-02-23 20:53:00,
2013-02-23 16:01:00,47.0,38.0,29.88,NW,304,4.0,6.0,72,0.00,,,0.00,,2013-02-23 21:01:00,
2013-02-23 16:11:00,46.0,38.0,29.88,SW,231,3.0,7.0,73,0.00,,,0.00,,2013-02-23 21:11:00,
2013-02-23 16:22:00,46.0,38.0,29.88,SW,231,3.0,7.0,73,0.00,,,0.00,,2013-02-23 21:22:00,
2013-02-23 16:32:00,46.0,38.0,29.88,WNW,289,4.0,8.0,73,0.00,,,0.00,,2013-02-23 21:32:00,
2013-02-23 16:42:00,46.0,38.0,29.88,WNW,289,4.0,8.0,73,0.00,,,0.00,,2013-02-23 21:42:00,
2013-02-23 16:52:00,45.0,37.0,29.87,WNW,300,2.0,6.0,74,0.00,,,0.00,,2013-02-23 21:52:00,
2013-02-23 17:01:00,45.0,37.0,29.88,WNW,303,1.0,5.0,74,0.00,,,0.00,,2013-02-23 22:01:00,
2013-02-23 17:11:00,44.0,36.0,29.88,WNW,296,1.0,5.0,74,0.00,,,0.00,,2013-02-23 22:11:00,
2013-02-23 17:22:00,44.0,36.0,29.88,WNW,296,1.0,5.0,74,0.00,,,0.00,,2013-02-23 22:22:00,
2013-02-23 17:32:00,43.0,35.0,29.87,NW,306,0.0,3.0,74,0.00,,,0.00,,2013-02-23 22:32:00,
2013-02-23 17:42:00,43.0,35.0,29.87,NW,306,0.0,3.0,74,0.00,,,0.00,,2013-02-23 22:42:00,
2013-02-23 17:51:00,43.0,36.0,29.88,NW,306,0.0,2.0,75,0.00,,,0.00,,2013-02-23 22:51:00,
2013-02-23 18:01:00,42.0,35.0,29.88,NW,306,0.0,1.0,76,0.00,,,0.00,,2013-02-23 23:01:00,
2013-02-23 18:11:00,41.0,34.0,29.88,NW,306,0.0,1.0,77,0.00,,,0.00,,2013-02-23 23:11:00,
2013-02-23 18:21:00,41.0,34.0,29.88,NW,306,0.0,1.0,77,0.00,,,0.00,,2013-02-23 23:21:00,
2013-02-23 18:32:00,40.0,33.0,29.88,WNW,298,0.0,1.0,77,0.00,,,0.00,,2013-02-23 23:32:00,
2013-02-23 18:42:00,40.0,33.0,29.88,WNW,298,0.0,1.0,77,0.00,,,0.00,,2013-02-23 23:42:00,
2013-02-23 18:52:00,38.0,32.0,29.88,WNW,298,0.0,0.0,80,0.00,,,0.00,,2013-02-23 23:52:00,
2013-02-23 19:01:00,37.0,32.0,29.88,WNW,298,0.0,1.0,82,0.00,,,0.00,,2013-02-24 00:01:00,
2013-02-23 19:11:00,37.0,32.0,29.88,WNW,298,0.0,1.0,82,0.00,,,0.00,,2013-02-24 00:11:00,
2013-02-23 19:22:00,36.0,32.0,29.89,WNW,298,0.0,1.0,85,0.00,,,0.00,,2013-02-24 00:22:00,
2013-02-23 19:32:00,35.0,31.0,29.89,WNW,298,0.0,1.0,86,0.00,,,0.00,,2013-02-24 00:32:00,
2013-02-23 19:42:00,35.0,31.0,29.89,WNW,298,0.0,1.0,86,0.00,,,0.00,,2013-02-24 00:42:00,
2013-02-23 19:52:00,35.0,31.0,29.89,WNW,298,0.0,1.0,86,0.00,,,0.00,,2013-02-24 00:52:00,
2013-02-23 20:01:00,35.0,32.0,29.89,WNW,298,0.0,1.0,87,0.00,,,0.00,,2013-02-24 01:01:00,
2013-02-23 20:11:00,35.0,32.0,29.89,WNW,298,0.0,1.0,87,0.00,,,0.00,,2013-02-24 01:11:00,
2013-02-23 20:22:00,35.0,32.0,29.88,WNW,298,0.0,1.0,87,0.00,,,0.00,,2013-02-24 01:22:00,
2013-02-23 20:32:00,34.0,30.0,29.88,WNW,298,0.0,2.0,86,0.00,,,0.00,,2013-02-24 01:32:00,
2013-02-23 20:42:00,34.0,30.0,29.88,WNW,298,0.0,2.0,86,0.00,,,0.00,,2013-02-24 01:42:00,
2013-02-23 20:51:00,34.0,31.0,29.88,WNW,298,0.0,1.0,87,0.00,,,0.00,,2013-02-24 01:51:00,
2013-02-23 21:01:00,33.0,29.0,29.88,WNW,298,0.0,2.0,85,0.00,,,0.00,,2013-02-24 02:01:00,
2013-02-23 21:11:00,33.0,29.0,29.88,WNW,298,0.0,2.0,85,0.00,,,0.00,,2013-02-24 02:11:00,
2013-02-23 21:22:00,33.0,30.0,29.88,WNW,298,0.0,1.0,87,0.00,,,0.00,,2013-02-24 02:22:00,
2013-02-23 21:32:00,32.0,29.0,29.89,WNW,298,0.0,2.0,87,0.00,,,0.00,,2013-02-24 02:32:00,
2013-02-23 21:42:00,32.0,29.0,29.89,WNW,298,0.0,2.0,87,0.00,,,0.00,,2013-02-24 02:42:00,
2013-02-23 21:52:00,32.0,29.0,29.89,WNW,298,0.0,0.0,89,0.00,,,0.00,,2013-02-24 02:52:00,
2013-02-23 22:02:00,31.0,28.0,29.89,WNW,298,0.0,0.0,89,0.00,,,0.00,,2013-02-24 03:02:00,
2013-02-23 22:11:00,31.0,28.0,29.88,WNW,298,0.0,0.0,90,0.00,,,0.00,,2013-02-24 03:11:00,
2013-02-23 22:22:00,31.0,28.0,29.88,WNW,298,0.0,0.0,90,0.00,,,0.00,,2013-02-24 03:22:00,
2013-02-23 22:32:00,31.0,28.0,29.88,WNW,298,0.0,0.0,90,0.00,,,0.00,,2013-02-24 03:32:00,
2013-02-23 22:42:00,31.0,28.0,29.88,WNW,298,0.0,0.0,90,0.00,,,0.00,,2013-02-24 03:42:00,
2013-02-23 22:52:00,31.0,29.0,29.88,WNW,298,0.0,0.0,92,0.00,,,0.00,,2013-02-24 03:52:00,
2013-02-23 23:01:00,31.0,29.0,29.88,WNW,297,0.0,1.0,92,0.00,,,0.00,,2013-02-24 04:01:00,
2013-02-23 23:11:00,31.0,29.0,29.88,WNW,297,0.0,1.0,92,0.00,,,0.00,,2013-02-24 04:11:00,
2013-02-23 23:21:00,32.0,30.0,29.88,WNW,297,0.0,0.0,91,0.00,,,0.00,,2013-02-24 04:21:00,
2013-02-23 23:32:00,35.0,32.0,29.88,NW,304,1.0,3.0,89,0.00,,,0.00,,2013-02-24 04:32:00,
2013-02-23 23:42:00,35.0,32.0,29.88,NW,304,1.0,3.0,89,0.00,,,0.00,,2013-02-24 04:42:00,
2013-02-23 23:52:00,35.0,31.0,29.88,NW,304,1.0,2.0,86,0.00,,,0.00,,2013-02-24 04:52:00,